This is the latest recevied weather packets stored in our database for station/object LU1MQF-13. If no packets are shown the sender has not sent any weather packets the latest 10 day(s).
| Time | Temp. | Humidity | Pressure | Rain* | Wind** | Luminosity | Snow |
|---|---|---|---|---|---|---|---|
| 1778273836 | 15° C | 32% | 938 hPa | - | - | - | - |
| 1778272936 | 16.11° C | 28% | 937.6 hPa | - | - | - | - |
| 1778272036 | 16.11° C | 25% | 936.7 hPa | - | - | - | - |
| 1778271136 | 17.22° C | 24% | 935.5 hPa | - | - | - | - |
| 1778270236 | 17.22° C | 22% | 934.8 hPa | - | - | - | - |
| 1778269336 | 17.78° C | 24% | 933.9 hPa | - | - | - | - |
| 1778267536 | 18.89° C | 25% | 933.5 hPa | - | - | - | - |
| 1778266636 | 18.89° C | 22% | 933.1 hPa | - | - | - | - |
| 1778265736 | 18.89° C | 24% | 932.9 hPa | - | - | - | - |
| 1778264836 | 18.89° C | 24% | 932.7 hPa | - | - | - | - |
| 1778263935 | 18.89° C | 28% | 932.6 hPa | - | - | - | - |
| 1778263036 | 20° C | 38% | 932.8 hPa | - | - | - | - |
| 1778262136 | 18.89° C | 28% | 932.8 hPa | - | - | - | - |
| 1778261236 | 18.89° C | 32% | 932.9 hPa | - | - | - | - |
| 1778260336 | 18.89° C | 32% | 933.3 hPa | - | - | - | - |
| 1778259435 | 18.89° C | 29% | 933.5 hPa | - | - | - | - |
| 1778258536 | 18.89° C | 29% | 933.8 hPa | - | - | - | - |
| 1778257636 | 17.78° C | 30% | 934.2 hPa | - | - | - | - |
| 1778255840 | 17.22° C | 32% | 934.9 hPa | - | - | - | - |
| 1778254935 | 17.22° C | 35% | 935.5 hPa | - | - | - | - |
| 1778254036 | 16.11° C | 28% | 935.8 hPa | - | - | - | - |
| 1778253135 | 16.11° C | 30% | 936.1 hPa | - | - | - | - |
| 1778252236 | 15° C | 25% | 936.7 hPa | - | - | - | - |
| 1778251335 | 15° C | 23% | 937 hPa | - | - | - | - |
| 1778250435 | 13.89° C | 22% | 937.3 hPa | - | - | - | - |
* Rain since midnight (hover to see other rain measurements)
** Current wind speed in m/s (hover to see current wind gust speed)